{"data":{"norad_id":68184,"intl_designator":"2026-050T","name":"STARLINK-36964","alt_names":[],"object_type":"PAYLOAD","status":"ACTIVE","operator":null,"country":"US","launch_date":"2026-03-14","launch_site_code":"AFETR","launch_vehicle":null,"mission":null,"orbit_class":"UNKNOWN","rcs_meters":null,"size_class":null,"mass_kg":null,"dimensions":null,"purposes":["comms"],"wikipedia_slug":null,"has_3d_model":false,"image_url":null,"decayed_at":null,"tle_current":{"epoch":"2026-09-19T21:26:58.138080Z","epoch_age_seconds":108577,"freshness":"FRESH","line1":"1 68184U 26050T   26262.89372845  .00015454  00000+0  46769-3 0  9997","line2":"2 68184  53.1590  80.6466 0001004  85.2797 274.8320 15.34392753 30477","mean_motion":15.34392753,"eccentricity":0.0001004,"inclination_deg":53.159,"raan_deg":80.6466,"arg_perigee_deg":85.2797,"mean_anomaly_deg":274.832,"bstar":0.00046769,"rev_number":3047,"period_min":93.848201328151,"perigee_km":462.03795738042,"apogee_km":463.41160242582,"semimajor_km":6840.8617799031,"source":"CELESTRAK","updated_at":"2026-09-20T09:00:43.802463Z"}}}